VLG71KL LEBL-LIRF

Flight info

Callsign VLG71KL
Flight time 1h 19m
Altitude 34000
Route DIPES N725 OSPOK/N0443F370 DCT NOLVI DCT ORKUM/N0443F380 DCT ELSAG DCT ALG DCT ROMPO DCT RUXOP DCT BATOX DCT TINTO/N0380F180 L5 VALMA
Aircraft A320/M-SDE3FGHIRWY/LB1

Departure

Time 2026-05-04 08:51
Airport Josep Tarradellas Barcelona-El Prat Airport (LEBL)

Arrival

Time 2026-05-04 10:10
Airport Rome–Fiumicino Leonardo da Vinci International Airport (LIRF)
Time Latitude Longitude Altitude Speed Heading
2026-05-04 08:24 41.29178 2.08016 3 ft 0 kts 155°
2026-05-04 08:43 41.29192 2.08007 3 ft 4 kts 155°
2026-05-04 08:43 41.29213 2.07994 5 ft 2 kts 155°
2026-05-04 08:43 41.29234 2.07977 4 ft 4 kts 124°
2026-05-04 08:43 41.29240 2.07946 3 ft 4 kts 72°
2026-05-04 08:44 41.29230 2.07915 5 ft 4 kts 65°
2026-05-04 08:44 41.29227 2.07907 6 ft 0 kts 65°
2026-05-04 08:46 41.29242 2.07951 3 ft 18 kts 65°
2026-05-04 08:46 41.29303 2.08127 3 ft 22 kts 65°
2026-05-04 08:46 41.29366 2.08322 4 ft 23 kts 81°
2026-05-04 08:46 41.29258 2.08445 3 ft 22 kts 154°
2026-05-04 08:47 41.29114 2.08538 4 ft 23 kts 154°
2026-05-04 08:47 41.28968 2.08630 9 ft 23 kts 158°
2026-05-04 08:47 41.28863 2.08737 4 ft 11 kts 79°
2026-05-04 08:47 41.28896 2.08833 3 ft 14 kts 65°
2026-05-04 08:48 41.28958 2.09010 3 ft 27 kts 65°
2026-05-04 08:48 41.29042 2.09261 3 ft 30 kts 66°
2026-05-04 08:48 41.29130 2.09522 3 ft 31 kts 65°
2026-05-04 08:48 41.29220 2.09789 3 ft 32 kts 66°
2026-05-04 08:49 41.29328 2.10049 4 ft 32 kts 64°
2026-05-04 08:50 41.28878 2.09354 6 ft 123 kts 245°
2026-05-04 08:50 41.28466 2.08151 213 ft 154 kts 245°
2026-05-04 08:51 41.27968 2.06910 989 ft 149 kts 230°
2026-05-04 08:51 41.27088 2.06264 1767 ft 152 kts 191°
2026-05-04 08:51 41.25982 2.06179 2224 ft 169 kts 185°
2026-05-04 08:51 41.24732 2.06111 2541 ft 191 kts 185°
2026-05-04 08:52 41.23343 2.06031 2924 ft 206 kts 185°
2026-05-04 08:52 41.21862 2.05941 3426 ft 217 kts 185°
2026-05-04 08:52 41.20388 2.05851 4215 ft 218 kts 186°
2026-05-04 08:52 41.18866 2.05756 5072 ft 219 kts 186°
2026-05-04 08:53 41.17338 2.05657 5900 ft 222 kts 185°
2026-05-04 08:54 41.05498 2.05106 11370 ft 254 kts 185°
2026-05-04 08:55 41.03721 2.05023 12184 ft 257 kts 185°
2026-05-04 08:55 41.01923 2.04969 12998 ft 261 kts 180°
2026-05-04 08:55 41.00149 2.05493 13760 ft 272 kts 161°
2026-05-04 08:55 40.98490 2.06887 14154 ft 299 kts 141°
2026-05-04 08:57 40.88464 2.26409 16960 ft 404 kts 113°
2026-05-04 09:01 41.03195 2.78505 23913 ft 468 kts 66°
2026-05-04 09:01 41.04572 2.82439 24271 ft 472 kts 66°
2026-05-04 09:01 41.05953 2.86399 24619 ft 476 kts 66°
2026-05-04 09:01 41.07347 2.90405 24971 ft 479 kts 66°
2026-05-04 09:02 41.08729 2.94435 25317 ft 483 kts 69°
2026-05-04 09:02 41.09773 2.98672 25662 ft 484 kts 79°
2026-05-04 09:02 41.10306 3.03064 26006 ft 483 kts 89°
2026-05-04 09:02 41.10332 3.07509 26354 ft 482 kts 98°
2026-05-04 09:03 41.09976 3.11928 26697 ft 483 kts 101°
2026-05-04 09:03 41.09593 3.16363 27053 ft 486 kts 101°
2026-05-04 09:03 41.09208 3.20829 27396 ft 489 kts 101°
2026-05-04 09:03 41.08819 3.25324 27727 ft 492 kts 101°
2026-05-04 09:04 41.08425 3.29838 28056 ft 495 kts 101°
2026-05-04 09:04 41.08028 3.34374 28370 ft 497 kts 101°
2026-05-04 09:04 41.07763 3.37398 28575 ft 499 kts 101°
2026-05-04 09:04 41.07359 3.41978 28882 ft 502 kts 102°
2026-05-04 09:05 41.06948 3.46575 29185 ft 504 kts 102°
2026-05-04 09:05 41.06533 3.51200 29489 ft 507 kts 102°
2026-05-04 09:05 41.05973 3.55797 29781 ft 504 kts 108°
2026-05-04 09:05 41.05171 3.60318 30181 ft 503 kts 109°
2026-05-04 09:06 41.04369 3.64820 30549 ft 502 kts 109°
2026-05-04 09:07 40.98721 3.96250 33009 ft 501 kts 109°
2026-05-04 09:08 40.97907 4.00732 33351 ft 501 kts 109°
2026-05-04 09:08 40.97088 4.05215 33696 ft 501 kts 109°
2026-05-04 09:08 40.96265 4.09686 33960 ft 501 kts 109°
2026-05-04 09:09 40.94621 4.18594 34004 ft 501 kts 109°
2026-05-04 09:09 40.92975 4.27549 34008 ft 501 kts 109°
2026-05-04 09:10 40.91317 4.36513 34010 ft 502 kts 109°
2026-05-04 09:10 40.89643 4.45466 34007 ft 502 kts 109°
2026-05-04 09:11 40.87968 4.54436 34010 ft 503 kts 109°
2026-05-04 09:11 40.86297 4.63407 34007 ft 503 kts 109°
2026-05-04 09:12 40.85144 4.72586 34001 ft 509 kts 101°
2026-05-04 09:14 40.81674 5.09760 34010 ft 511 kts 101°
2026-05-04 09:14 40.80782 5.19083 34016 ft 512 kts 102°
2026-05-04 09:15 40.79881 5.28392 34009 ft 512 kts 102°
2026-05-04 09:15 40.78983 5.37651 34014 ft 512 kts 102°
2026-05-04 09:17 40.74791 5.79711 34026 ft 515 kts 102°
2026-05-04 09:18 40.73834 5.89063 34026 ft 515 kts 102°
2026-05-04 09:18 40.72874 5.98424 34027 ft 515 kts 101°
2026-05-04 09:19 40.71913 6.07791 34029 ft 516 kts 101°
2026-05-04 09:19 40.70936 6.17165 34031 ft 516 kts 101°
2026-05-04 09:20 40.69949 6.26532 34034 ft 516 kts 101°
2026-05-04 09:20 40.68948 6.35849 34033 ft 517 kts 101°
2026-05-04 09:21 40.67941 6.45223 34033 ft 517 kts 101°
2026-05-04 09:21 40.66930 6.54612 34038 ft 518 kts 101°
2026-05-04 09:22 40.65906 6.64005 34047 ft 519 kts 101°
2026-05-04 09:22 40.64891 6.73311 34055 ft 518 kts 101°
2026-05-04 09:23 40.63857 6.82699 34041 ft 518 kts 101°
2026-05-04 09:23 40.62815 6.92077 34054 ft 518 kts 101°
2026-05-04 09:25 40.58561 7.29505 34059 ft 519 kts 101°
2026-05-04 09:26 40.57478 7.38882 34061 ft 519 kts 101°
2026-05-04 09:26 40.56628 7.48307 34062 ft 521 kts 91°
2026-05-04 09:27 40.57226 7.57787 34061 ft 521 kts 83°
2026-05-04 09:27 40.58053 7.67254 34067 ft 521 kts 83°
2026-05-04 09:28 40.58848 7.76669 34072 ft 521 kts 83°
2026-05-04 09:28 40.59640 7.86130 34070 ft 520 kts 83°
2026-05-04 09:29 40.60434 7.95598 34068 ft 520 kts 83°
2026-05-04 09:29 40.61225 8.05060 34058 ft 520 kts 83°
2026-05-04 09:30 40.62009 8.14517 34049 ft 520 kts 83°
2026-05-04 09:30 40.62964 8.23582 34052 ft 518 kts 75°
2026-05-04 09:31 40.65361 8.32459 34050 ft 514 kts 64°
2026-05-04 09:31 40.68124 8.41159 34053 ft 514 kts 64°
2026-05-04 09:32 40.70815 8.49709 34063 ft 514 kts 64°
2026-05-04 09:34 40.81662 8.84487 34094 ft 512 kts 64°
2026-05-04 09:34 40.84368 8.93184 34102 ft 512 kts 64°
2026-05-04 09:35 40.87059 9.01893 34108 ft 511 kts 65°
2026-05-04 09:35 40.89713 9.10562 34111 ft 511 kts 65°
2026-05-04 09:37 41.00315 9.45307 34125 ft 508 kts 65°
2026-05-04 09:38 41.02922 9.53909 34127 ft 507 kts 65°
2026-05-04 09:38 41.05536 9.62583 34129 ft 506 kts 65°
2026-05-04 09:39 41.08137 9.71242 34126 ft 505 kts 65°
2026-05-04 09:39 41.10728 9.79885 34131 ft 504 kts 65°
2026-05-04 09:40 41.13284 9.88537 34134 ft 503 kts 66°
2026-05-04 09:40 41.15823 9.97187 34144 ft 503 kts 66°
2026-05-04 09:42 41.25986 10.31557 34163 ft 498 kts 66°
2026-05-04 09:43 41.28498 10.40135 34164 ft 497 kts 66°
2026-05-04 09:43 41.31008 10.48702 34169 ft 497 kts 66°
2026-05-04 09:44 41.33509 10.57257 34168 ft 496 kts 66°
2026-05-04 09:46 41.43386 10.91345 29225 ft 493 kts 67°
2026-05-04 09:46 41.44613 10.95617 28319 ft 492 kts 68°
2026-05-04 09:46 41.45823 10.99845 27639 ft 485 kts 68°
2026-05-04 09:47 41.47013 11.04014 26968 ft 479 kts 68°
2026-05-04 09:47 41.48192 11.08139 26300 ft 473 kts 68°
2026-05-04 09:49 41.55942 11.35745 22506 ft 424 kts 69°
2026-05-04 09:49 41.56947 11.39366 22379 ft 408 kts 69°
2026-05-04 09:49 41.57907 11.42822 22142 ft 398 kts 69°
2026-05-04 09:51 41.63601 11.62984 19577 ft 376 kts 69°
2026-05-04 09:51 41.64501 11.66188 19388 ft 359 kts 69°
2026-05-04 09:51 41.65366 11.69273 18929 ft 353 kts 69°
2026-05-04 09:51 41.66221 11.72329 18634 ft 349 kts 69°
2026-05-04 09:52 41.67067 11.75355 18272 ft 346 kts 69°
2026-05-04 09:52 41.67906 11.78363 17883 ft 344 kts 69°
2026-05-04 09:52 41.68741 11.81356 17510 ft 342 kts 70°
2026-05-04 09:52 41.69569 11.84325 17155 ft 340 kts 70°
2026-05-04 09:53 41.70390 11.87277 16814 ft 337 kts 70°
2026-05-04 09:53 41.71206 11.90214 16484 ft 335 kts 70°
2026-05-04 09:53 41.72012 11.93124 16152 ft 333 kts 71°
2026-05-04 09:53 41.72813 11.96019 15845 ft 330 kts 71°
2026-05-04 09:54 41.73700 11.98837 15540 ft 328 kts 59°
2026-05-04 09:54 41.75300 12.00962 15257 ft 326 kts 29°
2026-05-04 09:54 41.77449 12.01785 14972 ft 321 kts 359°
2026-05-04 09:54 41.79584 12.01204 14849 ft 309 kts 337°
2026-05-04 09:55 41.81572 12.00207 14781 ft 302 kts 340°
2026-05-04 09:55 41.83566 11.99351 14557 ft 299 kts 342°
2026-05-04 09:55 41.85535 11.98569 14292 ft 299 kts 343°
2026-05-04 09:55 41.87529 11.97789 14005 ft 298 kts 343°
2026-05-04 09:56 41.89515 11.96999 13693 ft 298 kts 342°
2026-05-04 09:56 41.91493 11.96193 13395 ft 296 kts 342°
2026-05-04 09:56 41.93460 11.95377 13101 ft 295 kts 342°
2026-05-04 09:56 41.95412 11.94557 12805 ft 293 kts 342°
2026-05-04 09:57 41.97351 11.93736 12515 ft 291 kts 342°
2026-05-04 09:57 41.99277 11.92917 12231 ft 290 kts 342°
2026-05-04 09:57 42.00574 11.92364 12029 ft 289 kts 342°
2026-05-04 09:57 42.02481 11.91551 11764 ft 286 kts 342°
2026-05-04 09:58 42.04325 11.90766 11634 ft 278 kts 342°
2026-05-04 09:58 42.06151 11.89989 11425 ft 273 kts 341°
2026-05-04 09:58 42.07959 11.89218 11131 ft 272 kts 342°
2026-05-04 10:00 42.18012 11.93281 9253 ft 246 kts 75°
2026-05-04 10:00 42.18538 11.95478 8971 ft 246 kts 75°
2026-05-04 10:02 42.12740 12.06469 7310 ft 226 kts 135°
2026-05-04 10:04 42.04795 12.17464 5215 ft 187 kts 156°
2026-05-04 10:04 42.03614 12.18073 5026 ft 178 kts 161°
2026-05-04 10:04 42.02465 12.18658 4797 ft 173 kts 161°
2026-05-04 10:04 42.01384 12.19119 4695 ft 149 kts 165°
2026-05-04 10:05 42.00429 12.19509 4608 ft 140 kts 163°
2026-05-04 10:05 41.99505 12.19887 4503 ft 138 kts 164°
2026-05-04 10:05 41.98587 12.20260 4377 ft 137 kts 163°
2026-05-04 10:05 41.97679 12.20651 4186 ft 137 kts 163°
2026-05-04 10:06 41.96774 12.21032 3890 ft 136 kts 163°
2026-05-04 10:06 41.95861 12.21420 3478 ft 140 kts 162°
2026-05-04 10:06 41.94923 12.21818 3043 ft 142 kts 162°
2026-05-04 10:08 41.89486 12.24107 1191 ft 137 kts 162°
2026-05-04 10:08 41.88584 12.24499 880 ft 136 kts 165°
2026-05-04 10:08 41.87678 12.24866 800 ft 135 kts 163°
2026-05-04 10:08 41.86773 12.25235 680 ft 136 kts 163°
2026-05-04 10:09 41.85871 12.25606 457 ft 136 kts 163°
2026-05-04 10:09 41.84985 12.25995 206 ft 132 kts 165°
2026-05-04 10:09 41.84110 12.26355 29 ft 130 kts 163°
2026-05-04 10:09 41.83422 12.26644 15 ft 64 kts 162°
2026-05-04 10:10 41.83075 12.26789 15 ft 48 kts 162°
2026-05-04 10:10 41.82771 12.26875 16 ft 43 kts 180°
2026-05-04 10:10 41.82490 12.26811 16 ft 40 kts 194°
2026-05-04 10:10 41.82229 12.26821 15 ft 37 kts 162°
2026-05-04 10:11 41.81984 12.26923 15 ft 36 kts 163°
2026-05-04 10:11 41.81747 12.27020 15 ft 35 kts 162°
2026-05-04 10:11 41.81516 12.27116 16 ft 34 kts 163°
2026-05-04 10:11 41.81291 12.27212 15 ft 34 kts 162°
2026-05-04 10:12 41.81068 12.27305 15 ft 33 kts 163°
2026-05-04 10:12 41.80843 12.27341 15 ft 32 kts 188°
2026-05-04 10:12 41.80651 12.27222 15 ft 31 kts 241°
2026-05-04 10:12 41.80574 12.26947 15 ft 32 kts 250°
2026-05-04 10:13 41.80497 12.26662 17 ft 33 kts 251°
2026-05-04 10:13 41.80430 12.26417 17 ft 19 kts 250°
2026-05-04 10:13 41.80384 12.26235 15 ft 22 kts 252°
2026-05-04 10:13 41.80288 12.26084 15 ft 22 kts 207°
2026-05-04 10:14 41.80143 12.25990 16 ft 24 kts 205°
2026-05-04 10:14 41.79986 12.25892 15 ft 25 kts 205°
2026-05-04 10:16 41.79628 12.25783 16 ft 0 kts 115°